AVA9489 SKLT-SKBO

Flight info

Callsign AVA9489
Flight time N/A
Altitude 38000
Route MIKOX3C MIKOX DCT VVC B689 EGEPI EGEPI3T
Aircraft A319/M-SDE3FGHIRWY/LB1

Departure

Time 2026-05-04 20:48
Airport Alfredo Vásquez Cobo International Airport (SKLT)

Arrival

Time N/A
Airport El Dorado International Airport (SKBO)
Time Latitude Longitude Altitude Speed Heading
2026-05-04 20:36 -4.19732 -69.94200 277 ft 0 kts 110°
2026-05-04 20:40 -4.19726 -69.94215 277 ft 4 kts 113°
2026-05-04 20:41 -4.19713 -69.94237 281 ft 4 kts 156°
2026-05-04 20:41 -4.19692 -69.94237 282 ft 4 kts 194°
2026-05-04 20:41 -4.19675 -69.94232 281 ft 0 kts 200°
2026-05-04 20:44 -4.19677 -69.94233 282 ft 1 kts 200°
2026-05-04 20:44 -4.19697 -69.94240 281 ft 3 kts 200°
2026-05-04 20:44 -4.19713 -69.94246 279 ft 4 kts 201°
2026-05-04 20:45 -4.19748 -69.94261 277 ft 6 kts 211°
2026-05-04 20:45 -4.19754 -69.94295 277 ft 6 kts 281°
2026-05-04 20:45 -4.19741 -69.94342 277 ft 7 kts 278°
2026-05-04 20:45 -4.19739 -69.94392 278 ft 5 kts 272°
2026-05-04 20:46 -4.19749 -69.94429 278 ft 8 kts 231°
2026-05-04 20:46 -4.19808 -69.94455 278 ft 10 kts 199°
2026-05-04 20:46 -4.19886 -69.94484 281 ft 14 kts 201°
2026-05-04 20:46 -4.19980 -69.94500 279 ft 11 kts 172°
2026-05-04 20:47 -4.20018 -69.94515 279 ft 3 kts 249°
2026-05-04 20:47 -4.20013 -69.94524 276 ft 2 kts 315°
2026-05-04 20:47 -4.19990 -69.94523 277 ft 6 kts 20°
2026-05-04 20:47 -4.19977 -69.94518 282 ft 3 kts 21°
2026-05-04 20:48 -4.19758 -69.94434 280 ft 70 kts 20°
2026-05-04 20:48 -4.19103 -69.94189 277 ft 129 kts 20°
2026-05-04 20:48 -4.18184 -69.93848 678 ft 141 kts 19°
2026-05-04 20:48 -4.17273 -69.93501 1273 ft 141 kts 22°
2026-05-04 20:49 -4.16348 -69.93144 1866 ft 143 kts 23°
2026-05-04 20:49 -4.15379 -69.92770 2329 ft 158 kts 22°
2026-05-04 20:49 -4.14275 -69.92357 2710 ft 181 kts 19°
2026-05-04 20:49 -4.12938 -69.92381 3013 ft 210 kts 349°
2026-05-04 20:50 -4.11955 -69.92588 3298 ft 226 kts 352°
2026-05-04 20:50 -4.10317 -69.92825 3784 ft 250 kts 355°
2026-05-04 20:50 -4.08526 -69.93029 4494 ft 264 kts 356°
2026-05-04 20:50 -4.06679 -69.93224 5414 ft 269 kts 356°
2026-05-04 20:51 -4.04796 -69.93420 6347 ft 274 kts 356°
2026-05-04 20:51 -4.02883 -69.93618 7232 ft 278 kts 356°
2026-05-04 20:51 -4.00942 -69.93817 8121 ft 282 kts 356°
2026-05-04 20:51 -3.98971 -69.94023 8988 ft 287 kts 356°
2026-05-04 20:52 -3.96974 -69.94234 9858 ft 291 kts 356°
2026-05-04 20:52 -3.94915 -69.94452 10380 ft 308 kts 356°
2026-05-04 20:52 -3.92710 -69.94685 10752 ft 328 kts 356°
2026-05-04 20:52 -3.90410 -69.94892 11425 ft 335 kts 358°
2026-05-04 20:53 -3.88073 -69.95062 12181 ft 339 kts 358°
2026-05-04 20:53 -3.85704 -69.95215 12949 ft 343 kts 359°
2026-05-04 20:53 -3.83302 -69.95366 13698 ft 348 kts 359°
2026-05-04 20:53 -3.80904 -69.95517 14335 ft 352 kts 359°
2026-05-04 20:54 -3.78445 -69.95677 14983 ft 356 kts 358°
2026-05-04 20:54 -3.75959 -69.95843 15619 ft 360 kts 358°
2026-05-04 20:54 -3.73445 -69.96017 16251 ft 364 kts 358°
2026-05-04 20:54 -3.70901 -69.96193 16882 ft 369 kts 358°
2026-05-04 20:55 -3.68330 -69.96373 17503 ft 373 kts 358°
2026-05-04 20:55 -3.65723 -69.96555 18133 ft 377 kts 358°
2026-05-04 20:55 -3.63092 -69.96737 18660 ft 381 kts 358°
2026-05-04 20:55 -3.60434 -69.96923 19218 ft 384 kts 358°
2026-05-04 20:56 -3.57760 -69.97108 19779 ft 387 kts 358°
2026-05-04 20:56 -3.55060 -69.97295 20336 ft 390 kts 358°
2026-05-04 20:56 -3.52345 -69.97482 20890 ft 393 kts 358°
2026-05-04 20:56 -3.49603 -69.97670 21437 ft 396 kts 358°
2026-05-04 20:57 -3.46841 -69.97858 21980 ft 400 kts 358°
2026-05-04 20:57 -3.44055 -69.98049 22519 ft 403 kts 358°
2026-05-04 20:57 -3.41251 -69.98241 23059 ft 406 kts 358°
2026-05-04 20:57 -3.38421 -69.98442 23565 ft 409 kts 357°
2026-05-04 20:58 -3.35602 -69.98952 23985 ft 415 kts 346°
2026-05-04 20:58 -3.32921 -69.99965 24406 ft 420 kts 337°
2026-05-04 20:58 -3.30260 -70.01203 24830 ft 423 kts 337°
2026-05-04 20:58 -3.27583 -70.02437 25254 ft 425 kts 337°
2026-05-04 20:59 -3.24888 -70.03670 25671 ft 427 kts 337°
2026-05-04 20:59 -3.22172 -70.04907 26078 ft 430 kts 337°
2026-05-04 20:59 -3.19440 -70.06151 26485 ft 432 kts 337°
2026-05-04 20:59 -3.16693 -70.07404 26887 ft 435 kts 337°
2026-05-04 21:00 -3.13930 -70.08666 27273 ft 438 kts 337°
2026-05-04 21:00 -3.11152 -70.09939 27658 ft 441 kts 337°
2026-05-04 21:00 -3.08358 -70.11221 28048 ft 443 kts 337°
2026-05-04 21:00 -3.05548 -70.12509 28426 ft 446 kts 337°
2026-05-04 21:01 -3.02714 -70.13805 28818 ft 449 kts 337°
2026-05-04 21:01 -2.99865 -70.15106 29198 ft 452 kts 337°
2026-05-04 21:01 -2.96995 -70.16419 29564 ft 455 kts 337°
2026-05-04 21:01 -2.94114 -70.17741 29934 ft 457 kts 337°
2026-05-04 21:02 -2.91214 -70.19074 30247 ft 460 kts 337°
2026-05-04 21:02 -2.88296 -70.20412 30563 ft 462 kts 337°
2026-05-04 21:02 -2.85365 -70.21753 30872 ft 465 kts 337°
2026-05-04 21:02 -2.82417 -70.23100 31185 ft 467 kts 337°
2026-05-04 21:03 -2.79457 -70.24456 31490 ft 469 kts 337°
2026-05-04 21:03 -2.76494 -70.25815 31914 ft 468 kts 337°